Weather History for Memphis, TN

Change the Weather History Date:

Monday, December 31, 2012

  Actual Average Record
Temperature  
Mean Temperature 42 °F 41 °F  
Max Temperature 48 °F 50 °F 79 °F (1951)
Min Temperature 36 °F 33 °F 9 °F (1976)
Degree Days  
Heating Degree Days 23 24  
Month to date heating degree days 470 667  
Since 1 July heating degree days 1027 1164  
Cooling Degree Days 0 0  
Month to date cooling degree days 4 2  
Year to date cooling degree days 2617 2258  
Moisture  
Dew Point 34 °F    
Average Humidity 69    
Maximum Humidity 92    
Minimum Humidity 46    
Precipitation  
Precipitation 0.44 in 0.16 in 3.23 in (1944)
Month to date precipitation 3.73 5.74  
Year to date precipitation 36.90 53.68  
Snow  
Snow 0.00 in 0.00 in 2.00 in (2000)
Month to date snowfall 0.9 0.2  
Since 1 July snowfall 0.9 0.2  
Snow Depth 0.00 in    
Sea Level Pressure  
Sea Level Pressure 30.14 in    
Wind  
Wind Speed 5 mph (SE)    
Max Wind Speed 15 mph    
Max Gust Speed 20 mph    
Visibility 7 miles    
Events Rain    
T = Trace of Precipitation, MM = Missing Value Source: NWS Daily Summary

Daily Weather History Graph

Daily Weather History Graph

Search for Another Location

Airport:

Trip Planner

Search our weather history database for the weather conditions in past years. The results will help you decide how hot, cold, wet, or windy it might be!

Date:

Astronomy

Dec. 31, 2012 Rise Set
Actual Time 7:07 AM CST 4:58 PM CST
Civil Twilight 6:39 AM CST 5:26 PM CST
Nautical Twilight 6:08 AM CST 5:58 PM CST
Astronomical Twilight 5:37 AM CST 6:29 PM CST
Moon 8:20 PM CST (12/31) 8:57 AM CST (12/31)
Length of Visible Light 10h 46m
Length of Day
9h 50m
Waning Gibbous, 90% of the Moon is Illuminated
Dec 31
Waning Gibbous
Jan 4
Last Quarter
Jan 11
New
Jan 18
First Quarter
Jan 26
Full

Hourly Weather History & Observations

Time (CST) Temp. Windchill Dew Point Humidity Pressure Visibility Wind Dir Wind Speed Gust Speed Precip Events Conditions
12:54 AM 37.0 °F 32.4 °F 25.0 °F 62% 30.32 in 10.0 mi SE 5.8 mph - N/A   Overcast
1:54 AM 37.0 °F - 26.1 °F 65% 30.31 in 10.0 mi Calm Calm - 0.00 in   Overcast
2:54 AM 37.9 °F - 26.1 °F 62% 30.32 in 10.0 mi Calm Calm - N/A   Overcast
3:54 AM 37.9 °F - 26.1 °F 62% 30.32 in 10.0 mi Calm Calm - N/A   Overcast
4:54 AM 37.0 °F - 26.1 °F 65% 30.31 in 10.0 mi Calm Calm - N/A   Overcast
5:54 AM 37.9 °F 35.5 °F 26.1 °F 62% 30.31 in 10.0 mi SE 3.5 mph - N/A   Overcast
6:54 AM 37.9 °F 35.5 °F 27.0 °F 65% 30.31 in 10.0 mi South 3.5 mph - N/A   Overcast
7:54 AM 39.0 °F 35.7 °F 27.0 °F 62% 30.31 in 10.0 mi South 4.6 mph - N/A   Overcast
8:54 AM 39.9 °F 34.5 °F 28.0 °F 63% 30.30 in 10.0 mi South 8.1 mph - N/A   Overcast
9:54 AM 41.0 °F 34.7 °F 28.0 °F 60% 30.27 in 10.0 mi South 10.4 mph - N/A   Overcast
10:54 AM 44.1 °F 39.5 °F 28.0 °F 53% 30.24 in 10.0 mi South 8.1 mph - 0.00 in   Overcast
11:54 AM 48.0 °F - 28.9 °F 48% 30.19 in 10.0 mi SSE 8.1 mph - 0.00 in   Overcast
12:54 PM 46.9 °F - 28.0 °F 48% 30.18 in 10.0 mi SSW 5.8 mph - N/A   Overcast
1:54 PM 46.9 °F - 28.9 °F 50% 30.13 in 10.0 mi SSE 8.1 mph - 0.00 in   Overcast
2:54 PM 45.0 °F 41.2 °F 32.0 °F 60% 30.12 in 10.0 mi SSE 6.9 mph - 0.00 in Rain Light Rain
3:54 PM 43.0 °F 38.2 °F 35.1 °F 74% 30.07 in 6.0 mi SE 8.1 mph - 0.02 in Rain Light Rain
4:54 PM 44.1 °F 41.5 °F 37.0 °F 76% 30.07 in 10.0 mi East 4.6 mph - 0.02 in Rain Light Rain
5:06 PM 44.6 °F 41.4 °F 37.4 °F 76% 30.05 in 10.0 mi SE 5.8 mph - 0.00 in Rain Light Rain
5:54 PM 44.1 °F 40.8 °F 37.9 °F 79% 30.03 in 10.0 mi SE 5.8 mph - 0.00 in   Overcast
6:13 PM 44.6 °F 41.4 °F 37.4 °F 76% 30.03 in 10.0 mi SSE 5.8 mph - N/A   Overcast
6:54 PM 44.6 °F 39.7 °F 39.2 °F 81% 29.99 in 9.0 mi SE 9.2 mph - N/A Rain Light Rain
7:13 PM 46.4 °F 45.2 °F 41.0 °F 81% 30.00 in 8.0 mi SE 3.5 mph - 0.02 in Rain Light Rain
7:20 PM 46.4 °F 41.9 °F 42.8 °F 87% 30.04 in 5.0 mi WNW 9.2 mph - 0.03 in Rain Heavy Rain
7:28 PM 44.6 °F 43.1 °F 42.8 °F 93% 30.03 in 1.8 mi NNW 3.5 mph - 0.10 in Rain Heavy Rain
7:38 PM 44.6 °F 40.2 °F 42.8 °F 93% 30.05 in 3.0 mi WNW 8.1 mph - 0.15 in Rain Light Rain
7:54 PM 45.0 °F 40.6 °F 43.0 °F 93% 30.06 in 6.0 mi NW 8.1 mph - 0.16 in Rain Light Rain
8:11 PM 42.8 °F 38.6 °F 39.2 °F 87% 30.06 in 5.0 mi NW 6.9 mph - 0.00 in Rain Light Rain
8:54 PM 42.8 °F 40.1 °F 39.2 °F 87% 30.05 in 6.0 mi NNW 4.6 mph - N/A   Overcast
9:54 PM 42.1 °F 40.2 °F 39.9 °F 92% 30.06 in 2.0 mi ESE 3.5 mph - 0.09 in Rain Rain
10:12 PM 42.8 °F 39.3 °F 39.2 °F 87% 30.04 in 2.5 mi ESE 5.8 mph - 0.03 in Rain Light Rain
10:31 PM 42.8 °F 39.3 °F 39.2 °F 87% 30.03 in 4.0 mi ESE 5.8 mph - 0.04 in Rain Light Rain
10:46 PM 42.8 °F 40.1 °F 39.2 °F 87% 30.03 in 4.0 mi ESE 4.6 mph - 0.04 in Rain Light Rain
10:54 PM 42.1 °F 38.4 °F 39.9 °F 92% 30.03 in 3.0 mi ESE 5.8 mph - 0.04 in   Overcast
11:17 PM 42.8 °F 41.1 °F 41.0 °F 93% 30.04 in 2.5 mi East 3.5 mph - 0.01 in Rain Light Rain
11:28 PM 42.8 °F 39.3 °F 41.0 °F 93% 30.03 in 3.0 mi East 5.8 mph - 0.03 in Rain Light Rain
11:46 PM 42.8 °F 40.1 °F 41.0 °F 93% 30.03 in 2.0 mi East 4.6 mph - 0.06 in Rain Rain
11:54 PM 43.0 °F 40.3 °F 41.0 °F 93% 30.04 in 2.0 mi East 4.6 mph - 0.08 in Rain Heavy Rain